Regional Weather Roundup
Issued by NWS Charleston, SC

Current Version | Previous Version | Text Only | Print | Product List | Glossary Off
Versions: 1 2 3 4 5 6 7 8 9 10 11 12 13 14 15 16 17 18 19 20 21 22 23 24 25 26 27 28 29 30 31 32 33 34 35 36 37 38 39 40 41 42 43 44 45 46 47 48 49 50

000
ASUS42 KCHS 020612
RWRCHS

REGIONAL WEATHER ROUNDUP
NATIONAL WEATHER SERVICE CHARLESTON SC
200 AM EDT SUN AUG 02 2015

NOTE: "FAIR" INDICATES FEW OR NO CLOUDS BELOW 12,000 FEET WITH NO
SIGNIFICANT WEATHER AND/OR OBSTRUCTIONS TO VISIBILITY.

NOT ALL STATIONS ARE QUALITY CONTROLLED BY THE NATIONAL
WEATHER SERVICE. USE DATA WITH CAUTION...ESPECIALLY
DEWPOINT OBSERVATIONS.

SCZ027-030-031-034>040-042>050-020700-
...SOUTHEAST SOUTH CAROLINA...

CITY           SKY/WX    TMP DP  RH WIND       PRES   REMARKS
N CHARLESTON   CLEAR     77  73  87 CALM      29.92S
6HR MIN TEMP:  76; 6HR MAX TEMP:  81;

WATERFRONT PRK   N/A     80  77  90 CALM      29.89F
MOUNT PLEASANT LGT RAIN  73  73 100 CALM      29.92F
JOHNS ISLAND   FAIR      75  73  94 CALM      29.92S
PINOPOLIS      NOT AVBL
MONCKS CORNER  FAIR      75  72  88 CALM      29.92S FOG
SUMMERVILLE    FAIR      73  73 100 CALM      29.93S
BEAUFORT MCAS  CLEAR     77  75  93 CALM      29.91F
6HR MIN TEMP:  77; 6HR MAX TEMP:  82;

BEAUFORT ARPT  FAIR      77  77 100 CALM      29.91S
HILTON HEAD IS MOCLDY    79  77  94 S5        29.92F
WALTERBORO     CLEAR     75  73  94 CALM      29.93S
ALLENDALE      CLOUDY    73  72  94 CALM      29.91F

...SOUTHERN MIDLANDS AND PEE DEE...

CITY           SKY/WX    TMP DP  RH WIND       PRES   REMARKS
GEORGETOWN     NOT AVBL
KINGSTREE      NOT AVBL
ORANGEBURG     CLOUDY    75  72  90 CALM      29.93F
6HR MIN TEMP:  74; 6HR MAX TEMP:  84;

BARNWELL       FAIR      75  73  94 CALM      29.93F
AIKEN          FAIR      73  70  88 CALM      29.97S
MANNING        RAIN      73  72  94 CALM      29.93S
COLUMBIA       CLEAR     78  70  76 CALM      29.92F
6HR MIN TEMP:  78; 6HR MAX TEMP:  94;

SUMTER         CLEAR     76  71  87 SW6       29.91S
6HR MIN TEMP:  76; 6HR MAX TEMP:  88;

FLORENCE       CLEAR     77  75  93 CALM      29.92F
6HR MIN TEMP:  77; 6HR MAX TEMP:  89; 6HR PCP:  0.51;

MYRTLE BEACH   CLEAR     75  70  83 CALM      29.95S
N MYRTLE BEACH PTCLDY    76  73  91 CALM      29.92F
6HR MIN TEMP:  76; 6HR MAX TEMP:  82;


$$

GAZ063-065-086>088-099>101-113>116-118-119-134>141-150-020700-
...SOUTHEAST GEORGIA...

CITY           SKY/WX    TMP DP  RH WIND       PRES   REMARKS
SAVANNAH ARPT  PTCLDY    78  74  87 S5        29.92S
6HR MIN TEMP:  76; 6HR MAX TEMP:  80; 6HR PCP: TRACE;

HUNTER AAF     CLEAR     78  77  98 S3        29.89S
6HR MIN TEMP:  78; 6HR MAX TEMP:  82;

FORT STEWART   NOT AVBL
STATESBORO     CLEAR     74  50  43 CALM      29.91F
SYLVANIA       CLEAR     76  76 100 CALM      29.92S FOG
CLAXTON        NOT AVBL

...CSRA...CENTRAL AND FAR SOUTHEAST GEORGIA...

CITY           SKY/WX    TMP DP  RH WIND       PRES   REMARKS
THOMSON        CLEAR     75  74  99 CALM      29.96F
AUGUSTA-BUSH   CLEAR     74  72  93 CALM      29.91F
6HR MIN TEMP:  73; 6HR MAX TEMP:  83;

AUGUSTA-DANIEL CLEAR     76  72  87 E5        29.93F
SWAINSBORO     FAIR     N/A N/A N/A E3        29.92F
VIDALIA        MOCLDY    73  72  94 E3        29.91F
EASTMAN        FAIR      73  73 100 CALM      29.93F FOG
HAZLEHURST     MOCLDY    75  75 100 SE3       29.89F
ALMA           CLOUDY    77  75  93 CALM      29.89F
6HR MIN TEMP:  74; 6HR MAX TEMP:  81; 6HR PCP: TRACE;

WAYCROSS       CLOUDY    80  78  95 S5        29.90S
JESUP          CLOUDY    79  77  94 S3        29.91F
BAXLEY         CLOUDY    77  73  88 CALM      29.90F
BRUNSWICK      CLOUDY    79  73  83 SW7       29.93S
SAINT SIMONS   CLOUDY    79  74  84 SW8       29.91S
6HR MIN TEMP:  79; 6HR MAX TEMP:  82;


$$

SCZ027-028-034-036>038-045-046-048>050-GAZ119-141-020700-
...LAKE AND SUPPLEMENTAL COASTAL OBSERVATIONS...

STATION/POSITION TIME  TEMP    WIND        PRES    WAVE   SWELL
                       AIR SEA DIR/SP/G            HT/PER HT/PER/DIR
                 (UTC) (F)     (DEG/KT/KT) (MB)    (FT/S) (FT/S/D)
UPR LAKE MARION  NOT AVBL
WINYAH BAY       0445   78     280/  2     1013.0
LAKE MURRAY      0500   81     190/  7/ 11 1012.9S
ACE BASIN NERRS  NOT AVBL
FORT PULASKI     0500   81 86  170/  3/  5 1013.4R
SAPELO ISLAND    0500   81     220/ 10     1013.0S

$$

ANZ835-935-AMZ111-154-330-350-352-354-370-450-454-472-020700-
...C-MAN AND BUOY OBSERVATIONS...

STATION/POSITION TIME  TEMP    WIND        PRES    WAVE   SWELL
                       AIR SEA DIR/SP/G            HT/PER HT/PER/DIR
                 (UTC) (F)     (DEG/KT/KT) (MB)    (FT/S) (FT/S/D)
BUOY 41004       0550   82 84  230/ 12/ 16 1012.6F   4/ 7   3/ 7
BUOY 41008       0550   81 83  200/ 16/ 17 1013.0S   3/ 5   2/ 80/10
FOLLY BEACH CMAN 0500   81     200/  8/ 10 1013.3F
CAPERS NEARSHORE 0508   81     220/  8/ 10 1013.3F
FRIPP NEARSHORE  0500   82     190/ 10/ 12 1012.9S


STATION/POSITION TIME  TEMP    WIND        PRES    WAVE   SWELL
                       AIR SEA DIR/SP/G            HT/PER HT/PER/DIR
                 (UTC) (F)     (DEG/KT/KT) (MB)    (FT/S) (FT/S/D)
5E ST. MARYS GA  0521      83                N/A     3/ 6
FRYING PAN BUOY  0550   82 83  210/ 10/ 12 1013.4F   5/ 7   3/160/ 7
BUOY 41025       0550   82 84  250/ 14/ 17 1012.5F   4/ 7   2/170/ 7
CAPE LOOKOUT NC  0500   80     230/  9/ 11 1012.8F
BUOY 41002       0550   83 81  220/ 17/ 21 1015.5F   7/ 8   2/ 70/11
BUOY 41010       0520   82 83  210/  8/ 10 1016.1F
ST AUGUSTINE FL  0600   76 80  190/ 12/ 14 1014.2F


$$


USA.gov is the U.S. government's official web portal to all federal, state and local government web resources and services.